Delta Virtual Airport Information Service

Sao Paulo Guarulhos International Airport

ICAO: SBGR Country: Brazil
Latitude: -23.432 Longitude: -46.4695
Latest Arrival : LAN1986 (A) (SKBO-SBGR) Latest Departure : AZA2788 (3) (SBGR-SBBE)


WX CaptureLIVE
Data provided by noaa.gov | Fetched at 06:28:11

METAR : SBGR 271100Z 05010KT 9999 OVC010 19/17 Q1017

TAF : SBGR 271100Z 05010KT 9999 OVC010 19/17 Q1017


Runway Data for SBGR
Data provided by openaviationdata.com

Runway ID Mag Var Hdg Length Elevation Surface ILS Freq ILS Id ILS Slope
09L -20 93° 12151 ft 2458 ft Asphalt 110.7 IUC 2
09R -20 93° 9819 ft 2458 ft Asphalt 111.5 IGR 2
27L -20 273° 9819 ft 2458 ft Asphalt 111.1 IBC 3
27R -20 273° 12151 ft 2458 ft Asphalt 109.7 IGS 3

Sao Paulo Guarulhos International Airport, Brazil
Use only for reference purposes



Not for navigational purposes.